Simultaneous Nadir Overpasses (SNOs) Predictions

Prediction of SNOs between NOAA-19 and NPP Satellite Orbit:

Table of predicted SNOs for the next 14.0 days since TLE Epoch: 7/27/2015
Index Date (NOAA-19) Time (NOAA-19) Lat,Lon (NOAA-19) SZA (NOAA-19 ) Date (NPP) Time (NPP) Lat,Lon (NPP) SZA (NPP ) Distance(km) Time Diff (sec)
1 08/05/2015 21:27:55 -81.04, -14.95 111.95 08/05/2015 21:28:56 -81.04, -14.99 111.97 0.99 61
2 08/05/2015 22:18:51 81.04, 152.46 68.05 08/05/2015 22:19:40 81.03, 152.57 68.00 1.94 49
3 08/05/2015 23:09:57 -81.04, -40.24 111.96 08/05/2015 23:10:25 -81.03, -40.06 112.00 3.15 28
4 08/06/2015 00:00:53 81.04, 127.17 68.04 08/06/2015 00:01:10 81.04, 127.14 68.03 0.55 17
5 08/06/2015 00:51:59 -81.04, -65.53 111.97 08/06/2015 00:51:55 -81.03, -65.49 111.97 0.63 4
6 08/06/2015
